Weather History for Capo Bellavista, Italy

Change the Weather History Date:

Saturday, July 13, 2013

  Actual Average (LIED) Record (LIED)
Temperature  
Mean Temperature 78 °F -  
Max Temperature 87 °F 83 °F 96 °F (2011)
Min Temperature 70 °F 70 °F 57 °F (2007)
Cooling Degree Days 14    
Growing Degree Days 28 (Base 50)    
Moisture  
Dew Point 72 °F    
Average Humidity 83    
Maximum Humidity 100    
Minimum Humidity 63    
Precipitation  
Precipitation 0.00 in 0.01 in - ()
Sea Level Pressure  
Sea Level Pressure 30.02 in    
Wind  
Wind Speed 8 mph ()    
Max Wind Speed 20 mph    
Max Gust Speed -    
Visibility 8.7 miles    
Events      
Averages and records for this station are not official NWS values.
T = Trace of Precipitation, MM = Missing Value Source: Averaged Metar Reports

Daily Weather History Graph

Daily Weather History Graph

Search for Another Location

Airport:

Trip Planner

Search our weather history database for the weather conditions in past years. The results will help you decide how hot, cold, wet, or windy it might be!

Date:

Astronomy

Jul. 13, 2013 Rise Set
Actual Time 6:03 AM CEST 8:49 PM CEST
Civil Twilight 5:31 AM CEST 9:21 PM CEST
Nautical Twilight 4:51 AM CEST 10:01 PM CEST
Astronomical Twilight 4:05 AM CEST 10:47 PM CEST
Moon 11:02 AM CEST (7/13) 11:22 PM CEST (7/13)
Length of Visible Light 15h 50m
Length of Day
14h 46m
Waxing Crescent, 23% of the Moon is Illuminated
Jul 13
Waxing Crescent
Jul 16
First Quarter
Jul 22
Full
Jul 29
Last Quarter
Aug 6
New

Hourly Weather History & Observations

Time (CEST) Temp. Heat Index Dew Point Humidity Pressure Visibility Wind Dir Wind Speed Gust Speed Precip Events Conditions
12:00 AM 73 °F - 69 °F 84% 30.02 in 12 mi West 8.1 mph - -  
12:55 AM 73.4 °F - 69.8 °F 88% 30.04 in - SW 4.6 mph - N/A   Clear
1:00 AM 73 °F - 70 °F 89% 30.03 in 12 mi SW 8.9 mph - -  
1:55 AM 73.4 °F - 69.8 °F 88% 30.04 in - SSW 2.3 mph - N/A   Clear
2:00 AM 73 °F - 69 °F 84% 30.02 in 12 mi SSW 4.5 mph - -  
5:00 AM 71 °F - 67 °F 82% 30.02 in 12 mi North 11.2 mph - -  
5:55 AM 71.6 °F - 68.0 °F 88% 30.01 in - North 6.9 mph - N/A   Clear
6:00 AM 71 °F - 68 °F 88% 30.02 in 12 mi North 6.9 mph - -  
6:55 AM 71.6 °F - 68.0 °F 88% 30.01 in - NNE 8.1 mph - N/A   Clear
7:00 AM 72 °F - 69 °F 85% 30.02 in 12 mi NNE 15.7 mph - -  
7:55 AM 73.4 °F - 64.4 °F 73% 30.01 in - North 5.8 mph - N/A   Clear
8:00 AM 74 °F - 65 °F 66% 30.01 in 12 mi North 11.2 mph - -  
8:55 AM 78.8 °F - 69.8 °F 74% 30.04 in - NE 5.8 mph - N/A   Clear
9:00 AM 79 °F - 71 °F 69% 30.02 in 12 mi NE 5.8 mph - -   Clear
9:55 AM 82.4 °F 88.2 °F 73.4 °F 74% 30.04 in - East 8.1 mph - N/A   Clear
10:00 AM 83 °F - 73 °F 65% 30.02 in 12 mi East 8.1 mph - -   Partly Cloudy
10:55 AM 84.2 °F 92.3 °F 75.2 °F 74% 30.04 in 6.2 mi East 10.4 mph - N/A   Partly Cloudy
11:00 AM 85 °F - 74 °F 64% 30.03 in 12 mi East 10.4 mph - -   Scattered Clouds
11:55 AM 84.2 °F 94.1 °F 77.0 °F 79% 30.04 in 6.2 mi East 10.4 mph - N/A   Partly Cloudy
12:00 PM 84 °F - 76 °F 72% 30.03 in 12 mi East 20.1 mph - -   Scattered Clouds
12:55 PM 86.0 °F 96.9 °F 77.0 °F 74% 30.04 in 6.2 mi ESE 8.1 mph - N/A   Partly Cloudy
1:00 PM 87 °F - 76 °F 63% 30.03 in 12 mi ESE 8.1 mph - -   Scattered Clouds
1:55 PM 82.4 °F 90.9 °F 77.0 °F 84% 30.04 in 6.2 mi ESE 4.6 mph - N/A   Scattered Clouds
2:00 PM 82 °F - 76 °F 79% 30.04 in 6 mi ESE 4.6 mph - -   Overcast
2:55 PM 78.8 °F - 73.4 °F 83% 30.04 in 6.2 mi WNW 3.5 mph - N/A   Scattered Clouds
3:55 PM 80.6 °F 86.2 °F 75.2 °F 84% 30.01 in 6.2 mi South 4.6 mph - N/A   Scattered Clouds
4:00 PM 81 °F - 75 °F 76% 30.01 in 6 mi South 4.6 mph - -   Partly Cloudy
4:55 PM 77.0 °F - 75.2 °F 94% 30.04 in 6.2 mi SSW 10.4 mph - N/A   Scattered Clouds
5:00 PM 77 °F - 76 °F 94% 30.04 in 6 mi SSW 20.1 mph - -   Partly Cloudy
5:55 PM 77.0 °F - 73.4 °F 89% 30.04 in 6.2 mi SSW 8.1 mph - N/A   Scattered Clouds
6:00 PM 77 °F - 74 °F 88% 30.02 in 6 mi SSW 15.7 mph - -   Partly Cloudy
6:55 PM 75.2 °F - 73.4 °F 94% 30.04 in 6.2 mi SSW 9.2 mph - N/A   Scattered Clouds
7:00 PM 76 °F - 74 °F 91% 30.02 in 6 mi SSW 17.9 mph - -   Partly Cloudy
7:55 PM 77.0 °F - 71.6 °F 83% 30.01 in 6.2 mi SW 9.2 mph - N/A   Scattered Clouds
8:00 PM 77 °F - 72 °F 81% 30.01 in 12 mi SW 17.9 mph - -   Partly Cloudy
8:55 PM 77.0 °F - 73.4 °F 89% 30.01 in 6.2 mi South 6.9 mph - N/A   Scattered Clouds
9:00 PM 77 °F - 73 °F 85% 30.01 in 12 mi South 6.9 mph - -   Partly Cloudy
9:55 PM 75.2 °F - 73.4 °F 94% 30.01 in 6.2 mi ESE 5.8 mph - N/A   Scattered Clouds
10:00 PM 76 °F - 74 °F 91% 30.01 in 6 mi ESE 5.8 mph - -   Partly Cloudy
10:55 PM 75.2 °F - 75.2 °F 100% 30.01 in 6.2 mi East 6.9 mph - N/A   Scattered Clouds
11:00 PM 76 °F - 74 °F 94% 30.01 in 12 mi East 13.4 mph - -   Partly Cloudy
11:55 PM 75.2 °F - 71.6 °F 89% 30.04 in 6.2 mi SW 4.6 mph - N/A   Scattered Clouds